Weather History for KBVU - February, 2013

Change the Weather History Date:

Tuesday, February 19, 2013

  Actual Average (KLAS) Record (KLAS)
Temperature  
Mean Temperature 52 °F 54 °F  
Max Temperature 64 °F 63 °F 82 °F (1981)
Min Temperature 39 °F 44 °F 25 °F (1952)
Degree Days  
Heating Degree Days 14 11  
Month to date heating degree days 249  
Since 1 July heating degree days 1601  
Cooling Degree Days 0 0  
Month to date cooling degree days 0  
Year to date cooling degree days 0  
Growing Degree Days 2 (Base 50)    
Moisture  
Dew Point 23 °F    
Average Humidity 36    
Maximum Humidity 71    
Minimum Humidity 14    
Precipitation  
Precipitation 0.01 in 0.03 in 0.23 in (1938)
Month to date precipitation 0.49  
Year to date precipitation 1.03  
Snow  
Snow 0.00 in 0.00 in 1.40 in (1990)
Month to date snowfall 0.1  
Since 1 July snowfall 0.3  
Snow Depth -    
Sea Level Pressure  
Sea Level Pressure 29.69 in    
Wind  
Wind Speed 7 mph (SSE)    
Max Wind Speed 28 mph    
Max Gust Speed 36 mph    
Visibility 10 miles    
Events Thunderstorm    
T = Trace of Precipitation, MM = Missing Value Source: NWS Daily Summary

Daily Weather History Graph

Daily Weather History Graph

Search for Another Location

Airport or City:

Trip Planner

Search our weather history database for the weather conditions in past years. The results will help you decide how hot, cold, wet, or windy it might be!

Date:

Astronomy

Feb. 19, 2013 Rise Set
Actual Time 6:21 AM PST 5:25 PM PST
Civil Twilight 5:55 AM PST 5:51 PM PST
Nautical Twilight 5:25 AM PST 6:21 PM PST
Astronomical Twilight 4:56 AM PST 6:50 PM PST
Moon 12:05 PM PST (2/19) 1:51 AM PST (2/19)
Length of Visible Light 11h 55m
Length of Day
11h 03m
Waxing Gibbous, 68% of the Moon is Illuminated
Feb 19
Waxing Gibbous
Feb 25
Full
Mar 4
Last Quarter
Mar 11
New
Mar 19
First Quarter

Hourly Weather History & Observations

Time (PST) Temp. Windchill Dew Point Humidity Pressure Visibility Wind Dir Wind Speed Gust Speed Precip Events Conditions
12:15 AM 41.0 °F - 19.4 °F 42% 29.86 in 10.0 mi Calm Calm - N/A   Unknown
12:35 AM 42.8 °F - 19.4 °F 39% 29.86 in 10.0 mi Calm Calm - N/A   Unknown
12:55 AM 42.8 °F - 19.4 °F 39% 29.85 in 10.0 mi Calm Calm - N/A   Unknown
1:35 AM 42.8 °F - 21.2 °F 42% 29.84 in 10.0 mi Calm Calm - N/A   Unknown
1:55 AM 42.8 °F - 23.0 °F 46% 29.83 in 10.0 mi Calm Calm - N/A   Unknown
2:15 AM 42.8 °F 38.0 °F 23.0 °F 46% 29.82 in 10.0 mi NNE 8.1 mph - N/A   Unknown
2:35 AM 42.8 °F 38.6 °F 23.0 °F 46% 29.81 in 10.0 mi NE 6.9 mph - N/A   Unknown
2:55 AM 42.8 °F 38.0 °F 24.8 °F 49% 29.81 in 10.0 mi NE 8.1 mph - N/A   Unknown
3:15 AM 44.6 °F 41.4 °F 23.0 °F 43% 29.80 in 10.0 mi ENE 5.8 mph - N/A   Unknown
3:35 AM 44.6 °F 43.1 °F 19.4 °F 37% 29.80 in 10.0 mi ENE 3.5 mph - N/A   Unknown
3:55 AM 44.6 °F - 21.2 °F 39% 29.79 in 10.0 mi Calm Calm - N/A   Unknown
4:55 AM 42.8 °F 41.1 °F 19.4 °F 39% 29.79 in 10.0 mi NNE 3.5 mph - N/A   Unknown
5:15 AM 41.0 °F 39.0 °F 21.2 °F 45% 29.78 in 10.0 mi NE 3.5 mph - N/A   Unknown
5:35 AM 39.2 °F 35.9 °F 19.4 °F 45% 29.79 in 10.0 mi North 4.6 mph - N/A   Unknown
5:55 AM 42.8 °F 40.1 °F 19.4 °F 39% 29.78 in 10.0 mi ENE 4.6 mph - N/A   Unknown
6:15 AM 41.0 °F - 21.2 °F 45% 29.78 in 10.0 mi Calm Calm - N/A   Unknown
6:55 AM 44.6 °F 41.4 °F 21.2 °F 39% 29.78 in 10.0 mi NE 5.8 mph - N/A   Unknown
7:15 AM 46.4 °F 43.5 °F 21.2 °F 37% 29.78 in 10.0 mi NNE 5.8 mph - N/A   Unknown
7:35 AM 48.2 °F - 19.4 °F 32% 29.78 in 10.0 mi Calm Calm - N/A   Unknown
7:55 AM 50.0 °F - 19.4 °F 30% 29.78 in 10.0 mi Calm Calm - N/A   Unknown
8:15 AM 51.8 °F - 19.4 °F 28% 29.78 in 10.0 mi Calm Calm - N/A   Unknown
8:35 AM 53.6 °F - 17.6 °F 24% 29.78 in 10.0 mi Calm Calm - N/A   Unknown
8:55 AM 53.6 °F - 17.6 °F 24% 29.77 in 10.0 mi East 4.6 mph - N/A   Unknown
9:15 AM 55.4 °F - 19.4 °F 25% 29.76 in 10.0 mi East 6.9 mph - N/A   Unknown
9:35 AM 57.2 °F - 19.4 °F 23% 29.76 in 10.0 mi ESE 9.2 mph - N/A   Unknown
9:55 AM 57.2 °F - 19.4 °F 23% 29.74 in 10.0 mi ESE 9.2 mph - N/A   Unknown
10:15 AM 57.2 °F - 19.4 °F 23% 29.74 in 10.0 mi ESE 10.4 mph - N/A   Unknown
10:35 AM 59.0 °F - 19.4 °F 22% 29.73 in 10.0 mi SE 13.8 mph 18.4 mph N/A   Unknown
10:55 AM 60.8 °F - 21.2 °F 22% 29.71 in 10.0 mi SE 17.3 mph 23.0 mph N/A   Unknown
11:15 AM 59.0 °F - 21.2 °F 23% 29.70 in 10.0 mi SE 19.6 mph 26.5 mph N/A   Unknown
11:35 AM 59.0 °F - 21.2 °F 23% 29.69 in 10.0 mi SE 20.7 mph 28.8 mph N/A   Unknown
11:55 AM 59.0 °F - 23.0 °F 25% 29.67 in 10.0 mi SSE 25.3 mph 28.8 mph N/A   Unknown
12:15 PM 59.0 °F - 23.0 °F 25% 29.66 in 10.0 mi SSE 26.5 mph 31.1 mph N/A   Unknown
12:35 PM 62.6 °F - 23.0 °F 22% 29.64 in 10.0 mi SSE 24.2 mph 32.2 mph N/A   Unknown
12:55 PM 62.6 °F - 23.0 °F 22% 29.62 in 8.0 mi SSE 24.2 mph 33.4 mph N/A   Unknown
1:15 PM 62.6 °F - 23.0 °F 22% 29.62 in 10.0 mi South 20.7 mph 35.7 mph N/A   Partly Cloudy
1:35 PM 64.4 °F - 21.2 °F 19% 29.61 in 10.0 mi South 23.0 mph 33.4 mph N/A   Partly Cloudy
1:55 PM - - - N/A% - 10.0 mi North - - N/A   Unknown
2:15 PM 64.4 °F - 23.0 °F 21% 29.59 in 10.0 mi SSE 25.3 mph 31.1 mph N/A Thunderstorm Unknown
2:55 PM 62.6 °F - 12.2 °F 14% 29.59 in 9.0 mi South 27.6 mph 35.7 mph N/A   Unknown
3:15 PM 62.6 °F - 19.4 °F 19% 29.58 in 10.0 mi South 25.3 mph 34.5 mph N/A   Clear
4:35 PM 59.0 °F - 19.4 °F 22% 29.58 in 10.0 mi South 16.1 mph - N/A   Partly Cloudy
4:55 PM 59.0 °F - 17.6 °F 20% 29.58 in 10.0 mi South 21.9 mph 29.9 mph N/A   Partly Cloudy
5:15 PM 57.2 °F - 24.8 °F 29% 29.59 in 10.0 mi SW 11.5 mph - N/A   Scattered Clouds
5:35 PM 55.4 °F - 24.8 °F 31% 29.59 in 10.0 mi SW 17.3 mph 21.9 mph N/A Thunderstorm Partly Cloudy
5:55 PM 53.6 °F - 24.8 °F 33% 29.60 in 10.0 mi SW 12.7 mph - N/A   Clear
6:15 PM 53.6 °F - 24.8 °F 33% 29.59 in 10.0 mi SW 16.1 mph 21.9 mph N/A   Partly Cloudy
6:35 PM 53.6 °F - 24.8 °F 33% 29.59 in 10.0 mi SSW 17.3 mph 20.7 mph N/A   Clear
6:55 PM 51.8 °F - 24.8 °F 35% 29.60 in 10.0 mi SW 11.5 mph - N/A   Clear
7:15 PM 51.8 °F - 26.6 °F 38% 29.59 in 10.0 mi SW 15.0 mph - N/A   Clear
7:55 PM 51.8 °F - 26.6 °F 38% 29.59 in 10.0 mi SW 11.5 mph - N/A   Partly Cloudy
8:15 PM 50.0 °F - 26.6 °F 40% 29.58 in 10.0 mi SSW 11.5 mph - N/A   Mostly Cloudy
8:35 PM 50.0 °F - 28.4 °F 43% 29.58 in 10.0 mi SSW 9.2 mph - N/A   Scattered Clouds
8:55 PM 50.0 °F - 28.4 °F 43% 29.58 in 10.0 mi SW 9.2 mph - N/A   Mostly Cloudy
9:15 PM 50.0 °F - 28.4 °F 43% 29.58 in 10.0 mi SW 10.4 mph - N/A   Scattered Clouds
9:35 PM 50.0 °F - 28.4 °F 43% 29.58 in 10.0 mi WSW 9.2 mph - N/A   Partly Cloudy
10:15 PM 48.2 °F - 33.8 °F 58% 29.59 in 10.0 mi SW 6.9 mph - N/A   Mostly Cloudy
10:35 PM 46.4 °F 45.2 °F 33.8 °F 62% 29.58 in 9.0 mi SSW 3.5 mph - N/A   Mostly Cloudy
10:55 PM 46.4 °F 40.7 °F 35.6 °F 66% 29.58 in 5.0 mi South 12.7 mph 17.3 mph N/A Thunderstorm Haze
11:15 PM 44.6 °F 43.1 °F 35.6 °F 71% 29.58 in 7.0 mi East 3.5 mph - 0.01 in   Mostly Cloudy
11:35 PM 46.4 °F 44.3 °F 35.6 °F 66% 29.58 in 8.0 mi South 4.6 mph - 0.01 in   Mostly Cloudy
11:55 PM 46.4 °F 40.7 °F 32.0 °F 57% 29.57 in 10.0 mi SSW 12.7 mph - 0.01 in   Mostly Cloudy